Location: *
(57.8420°S, 159.8600°W)
Time: 03:31:43
(UTC+00:00)

FengYun 1-2 T - Pass Details

Date: 18 May 2021
Orbit: 847 x 880 km, 98.7° (Epoch: 20 June)

Event Time Altitude Azimuth Distance (km) Brightness Sun altitude
Exits shadow 05:38:50 12° 163° (SSE) 2,384 6.4 -24.8°
Maximum altitude 05:44:06 90° 236° (WSW) 873 4.1 -25.5°
Drops below altitude 10° 05:49:39 10° 340° (NNW) 2,491 6.8 -26.3°
Sets 05:52:00 0° 340° (NNW) 3,418 7.5 -26.6°
